Home   Weather   Chennai   Past weeks

Flag for India Past Weather in Chennai, Tamil Nadu, India — Yesterday and Last 2 Weeks

Now
75 °F

Fog.


Feels Like: 74 °F
Forecast: 74 / 85 °F
Wind: No wind

Location: Madras / Minambakkam

Current Time: Dec 8, 2016 at 2:13:14 am

Latest Report: Dec 8, 2016 at 1:30 am


Visibility: 2 mi

Pressure: 29.83 "Hg

Humidity: 94%

Dew Point: 73 °F

Location of ChennaiLocation

Past Weather in Chennai — Graph

°F

Chennai Temperature Yesterday

Maximum temperature yesterday: 84 °F (at 2:00 pm)
Minimum temperature yesterday: 72 °F (at 2:00 am)
Average temperature yesterday: 78 °F

High & Low Weather Summary for the Past Weeks

 TemperatureHumidityPressure
High90 °F (Nov 23, 12:00 pm)100% (Nov 29, 2:00 am)29.95 "Hg (Nov 29, 2:00 am)
Low66 °F (Nov 28, 5:30 am)27% (Nov 23, 12:00 pm)29.74 "Hg (Nov 25, 2:30 pm)
Average78 °F77%29.84 "Hg
* Reported Nov 23 12:30 am — Dec 8 1:00 am, Chennai, Weather by CustomWeather, © 2016

Note: Actual official high and low records may vary slightly from our data, if they occured in-between our weather recording intervals... More about our weather records

Advertising

Chennai Weather History for the Previous 24 Hours

Scroll right to see more
 ConditionsComfort  
Time TempWeatherWind HumidityBarometerVisibility
1:00 am
Thu, Dec 8
77 °FPassing clouds.No wind89%29.83 "Hg2 mi
12:30 am77 °FPassing clouds.No wind89%29.83 "Hg2 mi
12:00 am77 °FPassing clouds.No wind89%29.86 "Hg2 mi
11:30 pm
Wed, Dec 7
77 °FPartly cloudy.No wind89%29.86 "Hg2 mi
11:00 pm77 °FPassing clouds.No wind89%29.86 "Hg2 mi
10:30 pm79 °FPassing clouds.No wind84%29.86 "Hg2 mi
10:00 pm79 °FPassing clouds.No wind84%29.86 "Hg2 mi
9:30 pm79 °FPartly cloudy.No wind84%29.86 "Hg2 mi
9:00 pm79 °FFog.No wind89%29.86 "Hg2 mi
8:30 pm79 °FFog.No wind89%29.86 "Hg2 mi
8:00 pm79 °FFog.3 mph89%29.86 "Hg2 mi
7:30 pm79 °FFog.6 mph84%29.86 "Hg2 mi
7:00 pm81 °FFog.5 mph84%29.83 "Hg2 mi
6:30 pm81 °FFog.5 mph79%29.83 "Hg2 mi
6:00 pm81 °FFog.7 mph84%29.83 "Hg2 mi
5:30 pm81 °FFog.6 mph84%29.80 "Hg2 mi
5:00 pm82 °FBroken clouds.9 mph74%29.80 "Hg3 mi
4:30 pm82 °FBroken clouds.7 mph74%29.80 "Hg4 mi
4:00 pm82 °FBroken clouds.7 mph70%29.80 "Hg4 mi
3:30 pm82 °FBroken clouds.7 mph70%29.80 "Hg4 mi
3:00 pm82 °FFog.6 mph79%29.80 "Hg4 mi
2:30 pm84 °FBroken clouds.7 mph74%29.80 "Hg3 mi
2:00 pm84 °FMore clouds than sun.5 mph74%29.83 "Hg3 mi
1:30 pm82 °FMore clouds than sun.6 mph74%29.83 "Hg3 mi
1:00 pm82 °FMore clouds than sun.8 mph74%29.83 "Hg2 mi
12:30 pm81 °FDrizzle. More clouds than sun.6 mph79%29.83 "Hg2 mi
12:00 pm82 °FMore clouds than sun.5 mph70%29.86 "Hg2 mi
11:30 am81 °FMore clouds than sun.2 mph74%29.86 "Hg2 mi
11:00 am79 °FMore clouds than sun.2 mph79%29.89 "Hg2 mi
10:30 am79 °FMore clouds than sun.2 mph79%29.89 "Hg2 mi
10:00 am79 °FFog.2 mph74%29.89 "Hg2 mi
9:30 am77 °FFog.2 mph79%29.89 "Hg2 mi
9:00 am77 °FFog.2 mph79%29.89 "Hg2 mi
8:30 am77 °FFog.2 mph79%29.89 "Hg2 mi
8:00 am75 °FFog.2 mph83%29.89 "Hg1 mi
7:30 am73 °FFog.3 mph89%29.89 "Hg1 mi
6:30 am73 °FFog.3 mph83%29.86 "Hg1 mi
5:30 am72 °FFog.5 mph88%29.83 "Hg2 mi
5:00 am72 °FFog.No wind88%29.83 "Hg2 mi
4:30 am72 °FFog.No wind88%29.83 "Hg2 mi
4:00 am72 °FFog.No wind88%29.80 "Hg2 mi
3:30 am72 °FFog.No wind88%29.80 "Hg2 mi
3:00 am72 °FFog.No wind88%29.80 "Hg3 mi
2:30 am72 °FFog.No wind88%29.83 "Hg3 mi
2:00 am72 °FFog.No wind88%29.83 "Hg3 mi
Weather by CustomWeather, © 2016

See weather overviewHow to use our weather pages